Orbital Elements at Epoch 2459200.5 (2020-Dec-17.0) TDB
Reference: JPL 23 (heliocentric ecliptic J2000)
Element | Value | Uncertainty (1-sigma) | Units |
e | .1813906673243166 | 5.0628e-08 | |
a | 2.398473340942891 | 8.1728e-09 | au |
q | 1.963412661069677 | 1.203e-07 | au |
i | 6.460721720096892 | 5.1364e-06 | deg |
node | 63.28420954433029 | 4.0262e-05 | deg |
peri | 350.851124057873 | 4.2695e-05 | deg |
M | 25.2388157082746 | 1.273e-05 | deg |
tp | 2459105.381007403805 (2020-Sep-12.88100740) | 4.7903e-05 | TDB |
period | 1356.752936842584 3.71 | 6.9347e-06 1.899e-08 | d yr |
n | .2653393924746438 | 1.3562e-09 | deg/d |
Q | 2.833534020816105 | 9.6553e-09 | au |
|
| | Orbit Determination Parameters
Additional Information
|